Weather in Halls Gap

Australia     37°08′09″S   142°31′13″E
temp.,
°C
wind,
m/s
gust,
m/s
humid.,
%
clouds,
%
prec.,
mm/h
press.,
hPa
HPBL,
m
4 august, wed
wed401:00+5w2109499 0.1 1016882
04:00+5w1497100 0.2 1016358
07:00+6wsw21094100 0.2 10171101
10:00+8w2991100 0.3 1019929
13:00+9wsw2992100 0.3 10181271
16:00+10wsw3109268 0.9 10181072
19:00+8wsw3119599 0.2 1021953
22:00+8wsw31093100 0.3 1022926
5 august, thu
thu501:00+8wsw31092100 0.1 1021902
04:00+8wsw3989100 0.1 1021889
07:00+7wsw2895100 0.0 1022572
10:00+9wsw2982100 0.1 1023941
13:00+12wsw5869100 0.1 10221285
16:00+10wsw398288 0.3 10221009
19:00+9wsw2984100 0.1 1023853
22:00+8wsw3983100 0.1 1024911
6 august, fri
fri601:00+8w2975100 0.0 1023793
04:00+7w2883100 0.0 1023649
07:00+8w2875100 0.0 1025824
10:00+9wsw3770100 0.0 10261243
13:00+10wsw3769100 0.0 10251181
16:00+10w2672100 0.0 10241087
19:00+8wnw1188100 0.1 102535
22:00+7wnw1483100 0.1 1026138
7 august, sat
sat701:00+7nw1285100 0.0 102688
04:00+7wnw1290100 0.0 102697
07:00+7w1290100 0.0 102784
10:00+9wsw2778100 0.0 1028752
13:00+11sw4765100 0.1 10271262
16:00+11sw366677 0.1 10271050
19:00+8wsw118880 0.0 102916
22:00+5sw11975 0.0 103110
8 august, sun
sun801:00+4s119812 0.0 103111
04:00+4sse119919 0.0 103116
07:00+3se119930 0.0 103215
10:00+9e118319 0.0 1031385
13:00+12n2261100 0.1 10281465
16:00+10n128598 0.5 1028117
19:00+7n119410 0.3 102812
22:00+5n119490 0.3 102911